Terug naar catalogus

YAMAL 201

ActiefCommunicatieGEO
NORAD 28094·PAYLOAD·🇷🇺 Russia

Gelanceerd Nov 24, 2003 vanaf Baikonur Cosmodrome

Loading…

TLE

VersSource: Space-Track

Epoch: Sep 14, 2026, 21:04 UTC

1 28094U 03053B   26257.87797388 -.00000239  00000-0  00000-0 0  9998
2 28094   9.8132  54.5786 0006965 137.1587 207.6778  1.00293609 85775

Volg YAMAL 201 in realtime met AllMySat

Download on the App Store